GW7960 Weather Reports


time (UTC)temp
C
wind
direction
speed
KPH
gust
KPH
rain 1hr
cm
rain 24hr
cm
rain mn
cm
humidity
%
barometer
mb
20260902165841 23 254 3.2 8.0 0.00 0.00 0.00 57 1016.8
20260902165321 23 267 3.2 4.8 0.00 0.00 0.00 57 1016.7
20260902164800 23 243 4.8 9.7 0.00 0.00 0.00 58 1016.6
20260902164240 23 253 3.2 8.0 0.00 0.00 0.00 55 1016.7
20260902163720 24 140 3.2 6.4 0.00 0.00 0.00 55 1016.7
20260902163200 23 183 1.6 6.4 0.00 0.00 0.00 53 1016.8
20260902162640 23 245 1.6 4.8 0.00 0.00 0.00 55 1016.8
20260902162120 23 223 1.6 4.8 0.00 0.00 0.00 53 1016.8
20260902161600 23 281 1.6 6.4 0.00 0.00 0.00 50 1016.8
20260902161040 23 111 0.0 4.8 0.00 0.00 0.00 50 1016.8
20260902160520 23 208 1.6 4.8 0.00 0.00 0.00 50 1016.8
20260902160000 23 25 1.6 4.8 0.00 0.00 0.00 55 1016.8
20260902155440 23 125 1.6 4.8 0.00 0.00 0.00 59 1016.8
20260902154920 23 129 1.6 4.8 0.00 0.00 0.00 54 1016.7
20260902154400 23 134 0.0 1.6 0.00 0.00 0.00 56 1016.7
20260902153840 23 135 0.0 4.8 0.00 0.00 0.00 51 1016.7
20260902153320 23 0.0 0.0 0.00 0.00 0.00 49 1016.7
20260902152800 23 0.0 1.6 0.00 0.00 0.00 54 1016.7
20260902152250 22 0.0 1.6 0.00 0.00 0.00 58 1016.7
20260902151720 22 56 0.0 4.8 0.00 0.00 0.00 56 1016.7
20260902151200 22 57 0.0 1.6 0.00 0.00 0.00 52 1016.7
20260902150640 22 56 0.0 1.6 0.00 0.00 0.00 54 1016.7
20260902150120 22 0.0 1.6 0.00 0.00 0.00 52 1016.7
20260902145600 22 0.0 0.0 0.00 0.00 0.00 55 1016.7
20260902145040 21 0.0 0.0 0.00 0.00 0.00 59 1016.7
20260902144520 20 57 0.0 4.8 0.00 0.00 0.00 67 1016.7
20260902144000 20 57 1.6 4.8 0.00 0.00 0.00 68 1016.6
20260902143440 19 57 0.0 6.4 0.00 0.00 0.00 69 1016.6
20260902142920 18 56 1.6 1.6 0.00 0.00 0.00 70 1016.6
20260902142400 18 57 1.6 1.6 0.00 0.00 0.00 66 1016.5
20260902141840 18 0.0 0.0 0.00 0.00 0.00 61 1016.4
20260902141320 18 0.0 1.6 0.00 0.00 0.00 63 1016.3
20260902140800 18 0.0 0.0 0.00 0.00 0.00 69 1016.2
20260902140244 17 0.0 0.0 0.00 0.00 0.00 77 1016.1
20260902135720 17 0.0 3.2 0.00 0.00 0.00 83 1016.0
20260902135200 17 0.0 3.2 0.00 0.00 0.00 85 1016.0
20260902134640 17 0.0 0.0 0.00 0.00 0.00 85 1016.0
20260902134120 17 0.0 3.2 0.00 0.00 0.00 84 1016.0
20260902133600 17 0.0 3.2 0.00 0.00 0.00 83 1015.9
20260902133040 17 56 1.6 11.3 0.00 0.00 0.00 83 1015.9
20260902132520 17 57 1.6 3.2 0.00 0.00 0.00 83 1015.9
20260902132000 17 57 1.6 3.2 0.00 0.00 0.00 83 1015.8
20260902131440 17 57 1.6 4.8 0.00 0.00 0.00 83 1015.8
20260902130920 17 56 3.2 4.8 0.00 0.00 0.00 83 1015.9
20260902130400 17 57 1.6 4.8 0.00 0.00 0.00 83 1015.9
20260902125840 17 56 1.6 3.2 0.00 0.00 0.00 83 1015.9
20260902125320 17 57 1.6 3.2 0.00 0.00 0.00 83 1016.0
20260902124800 17 58 1.6 4.8 0.00 0.00 0.00 82 1016.0
20260902124240 17 104 1.6 4.8 0.00 0.00 0.00 83 1016.0
20260902123720 17 155 1.6 3.2 0.00 0.00 0.00 83 1016.0
20260902123200 17 155 1.6 3.2 0.00 0.00 0.00 83 1016.0
20260902122640 17 155 1.6 3.2 0.00 0.00 0.00 83 1016.1
20260902122120 17 0.0 0.0 0.00 0.00 0.00 84 1016.1
20260902121600 17 155 0.0 3.2 0.00 0.00 0.00 84 1016.1
20260902121040 17 0.0 1.6 0.00 0.00 0.00 84 1016.0
20260902120520 17 0.0 0.0 0.00 0.00 0.00 83 1016.1
20260902120000 17 0.0 3.2 0.00 0.00 0.00 83 1016.1
20260902115440 17 0.0 1.6 0.00 0.00 0.00 82 1016.1
20260902114920 17 0.0 0.0 0.00 0.00 0.00 82 1016.1
20260902114400 18 0.0 1.6 0.00 0.00 0.00 81 1016.1
20260902113840 18 156 0.0 3.2 0.00 0.00 0.00 81 1016.1
20260902113320 18 0.0 1.6 0.00 0.00 0.00 81 1016.1
20260902112800 18 155 0.0 3.2 0.00 0.00 0.00 81 1016.1
20260902112240 18 156 0.0 1.6 0.00 0.00 0.00 82 1016.1
20260902111720 17 0.0 0.0 0.00 0.00 0.00 83 1016.1
20260902111159 17 0.0 0.0 0.00 0.00 0.00 83 1016.2
20260902110640 18 0.0 0.0 0.00 0.00 0.00 82 1016.2
20260902110120 18 156 0.0 3.2 0.00 0.00 0.00 82 1016.1
20260902105559 18 155 1.6 3.2 0.00 0.00 0.00 82 1016.1
20260902105039 18 155 1.6 3.2 0.00 0.00 0.00 83 1016.1
20260902104520 18 155 1.6 3.2 0.00 0.00 0.00 84 1016.1
20260902104000 17 0.0 1.6 0.00 0.00 0.00 83 1016.1
20260902103440 18 0.0 1.6 0.00 0.00 0.00 83 1016.1
20260902102920 18 155 1.6 3.2 0.00 0.00 0.00 83 1016.2
20260902102400 18 155 0.0 3.2 0.00 0.00 0.00 83 1016.1
20260902101840 17 156 0.0 3.2 0.00 0.00 0.00 85 1016.1
20260902101320 17 0.0 1.6 0.00 0.00 0.00 85 1016.1
20260902100800 17 0.0 0.0 0.00 0.00 0.00 85 1016.1
20260902100239 17 0.0 1.6 0.00 0.00 0.00 84 1016.2
20260902095720 18 0.0 0.0 0.00 0.00 0.00 84 1016.2
20260902095200 18 0.0 0.0 0.00 0.00 0.00 83 1016.2
20260902094639 18 154 0.0 3.2 0.00 0.00 0.00 83 1016.2
20260902094120 18 0.0 1.6 0.00 0.00 0.00 85 1016.2
20260902093600 18 0.0 0.0 0.00 0.00 0.00 82 1016.2
20260902093040 18 0.0 0.0 0.00 0.00 0.00 83 1016.3
20260902092520 18 0.0 0.0 0.00 0.00 0.00 82 1016.2
20260902092000 18 0.0 1.6 0.00 0.00 0.00 82 1016.2
20260902091440 18 0.0 1.6 0.00 0.00 0.00 82 1016.2
20260902090920 18 0.0 1.6 0.00 0.00 0.00 82 1016.2
20260902090400 18 0.0 0.0 0.00 0.00 0.00 82 1016.2
20260902085839 18 0.0 3.2 0.00 0.00 0.00 81 1016.2
20260902085320 18 155 1.6 3.2 0.00 0.00 0.00 82 1016.2
20260902084800 18 0.0 1.6 0.00 0.00 0.00 83 1016.2
20260902084240 18 0.0 0.0 0.00 0.00 0.00 83 1016.3
20260902083719 18 0.0 1.6 0.00 0.00 0.00 82 1016.3
20260902083200 18 155 0.0 3.2 0.00 0.00 0.00 83 1016.3
20260902082639 18 0.0 0.0 0.00 0.00 0.00 84 1016.3
20260902082119 18 0.0 0.0 0.00 0.00 0.00 84 1016.3
20260902081600 18 0.0 0.0 0.00 0.00 0.00 82 1016.3
20260902081040 18 0.0 0.0 0.00 0.00 0.00 81 1016.3
20260902080520 18 0.0 1.6 0.00 0.00 0.00 83 1016.2
20260902080000 18 0.0 0.0 0.00 0.00 0.00 83 1016.2
20260902075440 18 0.0 0.0 0.00 0.00 0.00 82 1016.2
20260902074920 18 0.0 0.0 0.00 0.00 0.00 80 1016.2
20260902074400 18 0.0 1.6 0.00 0.00 0.00 80 1016.2
20260902073840 18 0.0 0.0 0.00 0.00 0.00 82 1016.2
20260902073320 18 0.0 0.0 0.00 0.00 0.00 83 1016.2
20260902072759 18 0.0 0.0 0.00 0.00 0.00 82 1016.2
20260902072240 18 0.0 0.0 0.00 0.00 0.00 82 1016.1
20260902071720 18 0.0 0.0 0.00 0.00 0.00 82 1016.0
20260902071200 18 0.0 0.0 0.00 0.00 0.00 82 1015.9
20260902070640 18 0.0 0.0 0.00 0.00 0.00 82 1015.9
20260902070119 18 0.0 0.0 0.00 0.00 0.00 80 1015.8
20260902065600 18 0.0 0.0 0.00 0.00 0.00 79 1015.7
20260902065040 18 0.0 0.0 0.00 0.00 0.00 79 1015.7
20260902064520 18 0.0 1.6 0.00 0.00 0.00 78 1015.7
20260902064000 18 155 0.0 1.6 0.00 0.00 0.00 79 1015.7
20260902063439 19 0.0 0.0 0.00 0.00 0.00 78 1015.8
20260902062919 19 0.0 1.6 0.00 0.00 0.00 77 1015.8
20260902062400 19 155 0.0 3.2 0.00 0.00 0.00 77 1015.8
20260902061839 19 0.0 1.6 0.00 0.00 0.00 79 1015.7
20260902061320 19 0.0 1.6 0.00 0.00 0.00 77 1015.7
20260902060800 19 0.0 0.0 0.00 0.00 0.00 76 1015.7
20260902060240 19 0.0 1.6 0.00 0.00 0.00 75 1015.6
20260902055720 19 156 0.0 1.6 0.00 0.00 0.00 75 1015.6
20260902055200 19 0.0 1.6 0.00 0.00 0.00 75 1015.5
20260902054639 19 155 0.0 1.6 0.00 0.00 0.00 76 1015.5
20260902054120 19 0.0 0.0 0.00 0.00 0.00 76 1015.6
20260902053600 19 0.0 1.6 0.00 0.00 0.00 76 1015.6
20260902053040 19 156 0.0 1.6 0.00 0.00 0.00 78 1015.6
20260902052520 19 0.0 0.0 0.00 0.00 0.00 75 1015.5
20260902052000 19 0.0 0.0 0.00 0.00 0.00 75 1015.5
20260902051440 19 0.0 1.6 0.00 0.00 0.00 75 1015.5
20260902050920 19 0.0 1.6 0.00 0.00 0.00 75 1015.6
20260902050359 19 0.0 1.6 0.00 0.00 0.00 75 1015.6
20260902045840 20 0.0 1.6 0.00 0.00 0.00 75 1015.5
20260902045319 20 0.0 1.6 0.00 0.00 0.00 74 1015.5
20260902044759 20 0.0 1.6 0.00 0.00 0.00 74 1015.4
20260902044239 20 0.0 1.6 0.00 0.00 0.00 75 1015.4
20260902043720 20 0.0 1.6 0.00 0.00 0.00 74 1015.3
20260902043200 20 156 0.0 3.2 0.00 0.00 0.00 76 1015.3
20260902042640 20 0.0 0.0 0.00 0.00 0.00 76 1015.2
20260902042120 20 0.0 0.0 0.00 0.00 0.00 75 1015.2
20260902041559 20 0.0 1.6 0.00 0.00 0.00 74 1015.1
20260902041040 20 244 0.0 1.6 0.00 0.00 0.00 74 1015.0
20260902040519 20 0.0 3.2 0.00 0.00 0.00 73 1014.9
20260902040000 20 0.0 3.2 0.00 0.00 0.00 72 1014.8
20260902035439 20 243 1.6 3.2 0.00 0.00 0.00 71 1014.7
20260902034920 20 226 1.6 3.2 0.00 0.00 0.00 71 1014.6
20260902034400 20 253 3.2 4.8 0.00 0.00 0.00 71 1014.6
20260902033840 20 247 3.2 4.8 0.00 0.00 0.00 71 1014.5
20260902033320 20 242 1.6 4.8 0.00 0.00 0.00 70 1014.4
20260902032800 20 248 3.2 8.0 0.00 0.00 0.00 70 1014.4
20260902032240 20 245 3.2 8.0 0.00 0.00 0.00 70 1014.5
20260902031720 20 233 4.8 9.7 0.00 0.00 0.00 70 1014.5
20260902031200 20 234 3.2 8.0 0.00 0.00 0.00 70 1014.5
20260902030640 20 240 3.2 4.8 0.00 0.00 0.00 70 1014.4
20260902030545 20 240 3.2 4.8 0.00 0.00 0.00 70 1014.4
20260902025600 20 252 4.8 8.0 0.00 0.00 0.00 69 1014.3
20260902025040 20 246 4.8 9.7 0.00 0.00 0.00 68 1014.3
20260902024520 20 260 4.8 9.7 0.00 0.00 0.00 69 1014.3
20260902024000 20 232 6.4 9.7 0.00 0.00 0.00 69 1014.2
20260902023439 21 241 4.8 11.3 0.00 0.00 0.00 69 1014.2
20260902022919 21 254 6.4 12.9 0.00 0.00 0.00 69 1014.1
20260902022359 21 248 6.4 11.3 0.00 0.00 0.00 69 1014.1
20260902021840 21 244 4.8 11.3 0.00 0.00 0.00 69 1014.1
20260902021319 21 244 6.4 11.3 0.00 0.00 0.00 69 1014.0
20260902020759 21 248 4.8 11.3 0.00 0.00 0.00 69 1014.0
20260902020239 21 230 3.2 11.3 0.00 0.00 0.00 68 1014.1
20260902015719 22 245 4.8 11.3 0.00 0.00 0.00 67 1014.1
20260902015200 23 237 6.4 16.1 0.00 0.00 0.00 66 1014.1
20260902014640 23 231 6.4 12.9 0.00 0.00 0.00 65 1014.1
20260902014119 23 242 6.4 12.9 0.00 0.00 0.00 65 1014.1
20260902013601 24 247 6.4 14.5 0.00 0.00 0.00 63 1014.0
20260902013040 24 242 6.4 11.3 0.00 0.00 0.00 63 1014.0
20260902012520 23 245 8.0 12.9 0.00 0.00 0.00 64 1014.1
20260902011959 25 228 6.4 11.3 0.00 0.00 0.00 61 1014.1
20260902011439 25 235 4.8 11.3 0.00 0.00 0.00 59 1014.1
20260902010920 25 239 4.8 12.9 0.00 0.00 0.00 60 1014.2
20260902010359 25 241 6.4 16.1 0.00 0.00 0.00 59 1014.2
20260902005840 25 246 6.4 11.3 0.00 0.00 0.00 57 1014.2
20260902005319 25 250 6.4 16.1 0.00 0.00 0.00 57 1014.3
20260902004800 25 258 6.4 16.1 0.00 0.00 0.00 59 1014.3
20260902004239 25 248 8.0 16.1 0.00 0.00 0.00 58 1014.3
20260902003720 25 246 8.0 16.1 0.00 0.00 0.00 56 1014.4
20260902003159 25 267 9.7 16.1 0.00 0.00 0.00 58 1014.3
20260902002640 25 249 6.4 17.7 0.00 0.00 0.00 55 1014.3
20260902002120 26 238 6.4 12.9 0.00 0.00 0.00 54 1014.3
20260902001600 26 232 4.8 11.3 0.00 0.00 0.00 52 1014.3
20260902001040 25 237 6.4 12.9 0.00 0.00 0.00 53 1014.4
20260902000519 25 251 8.0 12.9 0.00 0.00 0.00 52 1014.3
20260902000000 25 234 6.4 11.3 0.00 0.00 0.00 53 1014.4
20260901235440 25 243 9.7 12.9 0.00 0.00 0.00 55 1014.4
20260901234910 25 259 8.0 12.9 0.00 0.00 0.00 55 1014.4
20260901234351 25 242 8.0 12.9 0.00 0.00 0.00 53 1014.4
20260901233831 25 228 6.4 14.5 0.00 0.00 0.00 50 1014.4
20260901233310 25 237 9.7 16.1 0.00 0.00 0.00 51 1014.5
20260901232750 25 251 8.0 22.5 0.00 0.00 0.00 51 1014.5
20260901232231 25 230 8.0 17.7 0.00 0.00 0.00 48 1014.5
20260901231710 25 253 8.0 17.7 0.00 0.00 0.00 51 1014.5
20260901231150 25 243 8.0 19.3 0.00 0.00 0.00 49 1014.6
20260901230631 26 249 8.0 12.9 0.00 0.00 0.00 50 1014.6
20260901230110 26 264 12.9 54.7 0.00 0.00 0.00 52 1014.6
20260901225550 26 227 8.0 16.1 0.00 0.00 0.00 49 1014.6
20260901225031 26 231 9.7 22.5 0.00 0.00 0.00 48 1014.6
20260901224510 26 252 9.7 16.1 0.00 0.00 0.00 50 1014.7
20260901223950 26 257 11.3 17.7 0.00 0.00 0.00 53 1014.7
20260901223431 26 230 6.4 16.1 0.00 0.00 0.00 52 1014.7
20260901222910 26 232 9.7 20.9 0.00 0.00 0.00 53 1014.7
20260901222236 26 231 8.0 16.1 0.00 0.00 0.00 52 1014.8
20260901221716 26 249 9.7 20.9 0.00 0.00 0.00 53 1014.8
20260901221156 26 238 8.0 14.5 0.00 0.00 0.00 52 1014.8
20260901220324 26 241 9.7 17.7 0.00 0.00 0.00 54 1014.9
20260901215804 26 233 9.7 17.7 0.00 0.00 0.00 54 1014.9
20260901215244 26 238 8.0 16.1 0.00 0.00 0.00 52 1014.9
20260901214724 27 217 4.8 11.3 0.00 0.00 0.00 49 1015.0
20260901214204 26 233 6.4 17.7 0.00 0.00 0.00 51 1015.0
20260901213644 27 246 6.4 12.9 0.00 0.00 0.00 50 1015.0
20260901213124 26 236 8.0 16.1 0.00 0.00 0.00 52 1015.0
20260901212604 26 228 9.7 17.7 0.00 0.00 0.00 52 1015.1
20260901212044 26 238 8.0 12.9 0.00 0.00 0.00 52 1015.1
20260901211524 26 240 9.7 16.1 0.00 0.00 0.00 52 1015.2
20260901211004 26 241 8.0 22.5 0.00 0.00 0.00 51 1015.2
20260901210444 26 240 6.4 16.1 0.00 0.00 0.00 52 1015.2
20260901205924 26 228 8.0 17.7 0.00 0.00 0.00 53 1015.3
20260901205404 26 253 6.4 20.9 0.00 0.00 0.00 55 1015.3
20260901204844 26 246 9.7 17.7 0.00 0.00 0.00 54 1015.4
20260901204324 26 248 6.4 17.7 0.00 0.00 0.00 51 1015.4
20260901203804 26 238 6.4 14.5 0.00 0.00 0.00 53 1015.4
20260901203244 26 249 8.0 16.1 0.00 0.00 0.00 53 1015.5
20260901202724 27 228 6.4 16.1 0.00 0.00 0.00 51 1015.5
20260901202204 26 251 6.4 16.1 0.00 0.00 0.00 54 1015.5
20260901201644 26 242 9.7 16.1 0.00 0.00 0.00 54 1015.6
20260901201124 27 235 6.4 12.9 0.00 0.00 0.00 52 1015.7
20260901200604 26 256 9.7 16.1 0.00 0.00 0.00 55 1015.8
20260901200044 26 245 8.0 12.9 0.00 0.00 0.00 53 1015.8
20260901195524 26 248 6.4 12.9 0.00 0.00 0.00 54 1015.8
20260901195004 26 246 9.7 17.7 0.00 0.00 0.00 56 1015.9
20260901194444 27 240 6.4 16.1 0.00 0.00 0.00 52 1015.8
20260901193439 27 235 6.4 14.5 0.00 0.00 0.00 52 1015.9
20260901192919 27 222 4.8 11.3 0.00 0.00 0.00 50 1015.9
20260901192359 28 248 3.2 9.7 0.00 0.00 0.00 49 1016.0
20260901191839 27 238 3.2 9.7 0.00 0.00 0.00 51 1016.0
20260901191319 28 268 4.8 12.9 0.00 0.00 0.00 49 1016.1
20260901190759 28 226 1.6 4.8 0.00 0.00 0.00 47 1016.0
20260901190239 27 217 3.2 9.7 0.00 0.00 0.00 48 1016.0
20260901185719 27 246 1.6 11.3 0.00 0.00 0.00 49 1016.1
20260901185159 28 162 3.2 11.3 0.00 0.00 0.00 49 1016.1
20260901184639 27 191 3.2 6.4 0.00 0.00 0.00 48 1016.1
20260901184119 27 253 1.6 6.4 0.00 0.00 0.00 51 1016.2
20260901183559 27 256 3.2 8.0 0.00 0.00 0.00 52 1016.2
20260901183039 27 3.2 9.7 0.00 0.00 0.00 49 1016.1
20260901182519 26 13 3.2 6.4 0.00 0.00 0.00 53 1016.2
20260901181959 26 243 6.4 11.3 0.00 0.00 0.00 53 1016.2
20260901181439 27 230 3.2 9.7 0.00 0.00 0.00 49 1016.2
20260901180919 26 259 1.6 4.8 0.00 0.00 0.00 51 1016.2
20260901180359 26 255 3.2 11.3 0.00 0.00 0.00 52 1016.2
20260901175839 26 257 1.6 6.4 0.00 0.00 0.00 50 1016.2
20260901175319 27 202 1.6 6.4 0.00 0.00 0.00 49 1016.2
20260901174759 26 223 1.6 6.4 0.00 0.00 0.00 49 1016.2
20260901174239 26 198 1.6 4.8 0.00 0.00 0.00 55 1016.3
20260901173719 25 244 3.2 9.7 0.00 0.00 0.00 54 1016.3
20260901173159 25 295 0.0 4.8 0.00 0.00 0.00 52 1016.3
20260901172639 25 225 3.2 9.7 0.00 0.00 0.00 55 1016.3
20260901172119 25 130 3.2 11.3 0.00 0.00 0.00 56 1016.2
20260901171559 25 230 3.2 9.7 0.00 0.00 0.00 52 1016.2
20260901171039 25 67 1.6 4.8 0.00 0.00 0.00 55 1016.1
20260901170519 25 148 1.6 4.8 0.00 0.00 0.00 57 1016.2